GW6625 Weather Reports


time (UTC)temp
C
wind
direction
speed
KPH
gust
KPH
rain 1hr
cm
rain 24hr
cm
rain mn
cm
humidity
%
barometer
mb
20260506114520 6 242 0.0 1.6 0.00 0.00 0.00 73 1018.2
20260506114003 6 242 0.0 1.6 0.00 0.00 0.00 72 1018.2
20260506113506 5 243 0.0 1.6 0.00 0.00 0.00 73 1018.1
20260506113022 5 243 0.0 1.6 0.00 0.00 0.00 72 1018.1
20260506112506 5 243 0.0 1.6 0.00 0.00 0.00 73 1018.1
20260506112007 5 243 1.6 1.6 0.00 0.00 0.00 72 1018.0
20260506111521 6 243 0.0 1.6 0.00 0.00 0.00 72 1018.1
20260506111004 5 243 0.0 1.6 0.00 0.00 0.00 73 1018.0
20260506110507 5 243 0.0 1.6 0.00 0.00 0.00 73 1018.0
20260506110024 5 244 0.0 1.6 0.00 0.00 0.00 74 1017.9
20260506105506 5 243 0.0 1.6 0.00 0.00 0.00 73 1017.9
20260506105009 5 243 0.0 1.6 0.00 0.00 0.00 74 1017.8
20260506104521 5 243 0.0 1.6 0.00 0.00 0.00 74 1017.9
20260506104010 5 243 0.0 1.6 0.00 0.00 0.00 73 1017.9
20260506103508 5 243 1.6 1.6 0.00 0.00 0.00 73 1017.8
20260506103025 5 245 0.0 1.6 0.00 0.00 0.00 72 1017.7
20260506102504 5 245 1.6 1.6 0.00 0.00 0.00 72 1017.8
20260506102007 5 240 0.0 1.6 0.00 0.00 0.00 73 1017.7
20260506101523 5 234 0.0 1.6 0.00 0.00 0.00 73 1017.8
20260506101007 5 233 0.0 1.6 0.00 0.00 0.00 73 1017.8
20260506100511 5 233 0.0 1.6 0.00 0.00 0.00 73 1017.8
20260506100024 5 233 0.0 1.6 0.00 0.00 0.00 73 1017.7
20260506095507 5 233 1.6 0.0 0.00 0.00 0.00 73 1017.8
20260506095008 5 233 0.0 3.2 0.00 0.00 0.00 74 1017.8
20260506094518 5 234 1.6 3.2 0.00 0.00 0.00 73 1017.8
20260506094005 5 234 0.0 1.6 0.00 0.00 0.00 73 1017.8
20260506093503 5 234 0.0 1.6 0.00 0.00 0.00 72 1017.8
20260506093004 5 234 0.0 3.2 0.00 0.00 0.00 72 1017.7
20260506092504 5 235 0.0 3.2 0.00 0.00 0.00 71 1017.7
20260506092002 6 234 1.6 3.2 0.00 0.00 0.00 70 1017.6
20260506091513 6 234 0.0 3.2 0.00 0.00 0.00 70 1017.7
20260506091006 6 234 1.6 1.6 0.00 0.00 0.00 69 1017.6
20260506090507 7 226 0.0 1.6 0.00 0.00 0.00 68 1017.6
20260506090022 7 225 0.0 1.6 0.00 0.00 0.00 66 1017.6
20260506085505 7 225 1.6 1.6 0.00 0.00 0.00 65 1017.6
20260506085005 8 245 1.6 1.6 0.00 0.00 0.00 64 1017.6
20260506084532 8 244 0.0 3.2 0.00 0.00 0.00 63 1017.7
20260506084004 8 245 1.6 3.2 0.00 0.00 0.00 62 1017.7
20260506083508 9 235 1.6 3.2 0.00 0.00 0.00 62 1017.8
20260506083018 9 240 1.6 4.8 0.00 0.00 0.00 61 1017.6
20260506082505 9 233 1.6 4.8 0.00 0.00 0.00 61 1017.6
20260506082001 9 227 1.6 3.2 0.00 0.00 0.00 62 1017.6
20260506081512 8 233 0.0 1.6 0.00 0.00 0.00 62 1017.5
20260506081003 8 228 0.0 1.6 0.00 0.00 0.00 63 1017.5
20260506080503 8 228 1.6 3.2 0.00 0.00 0.00 64 1017.5
20260506073506 7 231 0.0 3.2 0.00 0.00 0.00 68 1017.4
20260506073019 7 231 1.6 3.2 0.00 0.00 0.00 68 1017.2
20260506072507 7 231 1.6 3.2 0.00 0.00 0.00 67 1017.2
20260506072007 7 234 1.6 3.2 0.00 0.00 0.00 67 1017.1
20260506071520 7 236 1.6 3.2 0.00 0.00 0.00 66 1017.1
20260506071006 7 236 1.6 3.2 0.00 0.00 0.00 66 1017.1
20260506070503 7 236 3.2 3.2 0.00 0.00 0.00 66 1017.0
20260506062502 9 238 1.6 3.2 0.00 0.00 0.00 62 1016.7
20260506062002 9 235 0.0 1.6 0.00 0.00 0.00 63 1016.7
20260506061503 10 235 0.0 1.6 0.00 0.00 0.00 62 1016.5
20260506061003 10 235 0.0 1.6 0.00 0.00 0.00 62 1016.4
20260506060505 10 235 0.0 3.2 0.00 0.00 0.00 61 1016.3
20260506051002 13 229 0.0 3.2 0.00 0.00 0.00 61 1016.0
20260506050501 13 229 1.6 3.2 0.00 0.00 0.00 59 1016.0
20260506045004 15 237 0.0 3.2 0.00 0.00 0.00 55 1015.9
20260506044511 15 328 0.0 4.8 0.00 0.00 0.00 57 1015.9
20260506044002 13 290 1.6 4.8 0.00 0.00 0.00 61 1015.7
20260506043505 13 240 0.0 1.6 0.00 0.00 0.00 62 1015.6
20260506043012 13 240 0.0 1.6 0.00 0.00 0.00 62 1015.6
20260506042506 13 240 0.0 1.6 0.00 0.00 0.00 61 1015.6
20260506042007 13 240 0.0 1.6 0.00 0.00 0.00 62 1015.6
20260506041503 13 236 0.0 3.2 0.00 0.00 0.00 61 1015.6
20260506041005 14 226 1.6 3.2 0.00 0.00 0.00 60 1015.5
20260506040506 15 255 0.0 1.6 0.00 0.00 0.00 58 1015.4
20260506040006 15 267 0.0 1.6 0.00 0.00 0.00 57 1015.3
20260506035503 15 268 0.0 1.6 0.00 0.00 0.00 56 1015.3
20260506035002 16 267 0.0 1.6 0.00 0.00 0.00 55 1015.3
20260506034504 16 267 0.0 1.6 0.00 0.00 0.00 55 1015.1
20260506034003 17 267 0.0 1.6 0.00 0.00 0.00 52 1015.0
20260506033502 17 300 0.0 1.6 0.00 0.00 0.00 51 1015.0
20260506033007 18 300 0.0 1.6 0.00 0.00 0.00 50 1015.0
20260506032504 18 300 0.0 1.6 0.00 0.00 0.00 48 1015.0
20260506032003 19 300 0.0 0.0 0.00 0.00 0.00 47 1015.0
20260506031510 19 300 0.0 0.0 0.00 0.00 0.00 46 1014.9
20260506031006 20 300 0.0 1.6 0.00 0.00 0.00 45 1014.9
20260506030506 20 300 0.0 4.8 0.00 0.00 0.00 44 1014.8
20260506030015 20 300 0.0 4.8 0.00 0.00 0.00 43 1014.7
20260506025502 20 271 0.0 1.6 0.00 0.00 0.00 43 1014.7
20260506025004 20 271 0.0 1.6 0.00 0.00 0.00 43 1014.6
20260506024505 20 270 1.6 1.6 0.00 0.00 0.00 44 1014.7
20260506024002 20 268 0.0 1.6 0.00 0.00 0.00 44 1014.6
20260506023503 20 269 0.0 4.8 0.00 0.00 0.00 44 1014.6
20260506023007 20 251 0.0 4.8 0.00 0.00 0.00 43 1014.6
20260506022506 20 288 1.6 4.8 0.00 0.00 0.00 43 1014.5
20260506022004 21 277 1.6 3.2 0.00 0.00 0.00 44 1014.5
20260506021510 21 274 0.0 3.2 0.00 0.00 0.00 44 1014.5
20260506021009 21 287 1.6 3.2 0.00 0.00 0.00 44 1014.5
20260506020507 21 285 1.6 3.2 0.00 0.00 0.00 44 1014.5
20260506020015 21 281 0.0 4.8 0.00 0.00 0.00 43 1014.4
20260506015506 21 294 1.6 4.8 0.00 0.00 0.00 43 1014.4
20260506015008 21 281 1.6 3.2 0.00 0.00 0.00 43 1014.4
20260506014520 21 285 1.6 3.2 0.00 0.00 0.00 44 1014.4
20260506014003 21 267 0.0 4.8 0.00 0.00 0.00 46 1014.3
20260506013502 20 248 0.0 8.0 0.00 0.00 0.00 47 1014.3
20260506013006 20 264 1.6 8.0 0.00 0.00 0.00 48 1014.2
20260506012504 21 257 1.6 6.4 0.00 0.00 0.00 47 1014.2
20260506012006 21 250 3.2 6.4 0.00 0.00 0.00 46 1014.2
20260506011514 21 262 3.2 6.4 0.00 0.00 0.00 44 1014.2
20260506011005 21 248 1.6 6.4 0.00 0.00 0.00 44 1014.2
20260506010506 21 273 1.6 6.4 0.00 0.00 0.00 43 1014.2
20260506010012 21 248 1.6 4.8 0.00 0.00 0.00 43 1014.2
20260506005503 21 245 1.6 6.4 0.00 0.00 0.00 43 1014.2
20260506005004 21 237 3.2 6.4 0.00 0.00 0.00 43 1014.2
20260506004532 21 248 1.6 3.2 0.00 0.00 0.00 42 1014.1
20260506004007 21 247 1.6 4.8 0.00 0.00 0.00 41 1014.1
20260506003507 22 287 1.6 4.8 0.00 0.00 0.00 40 1014.1
20260506003020 22 283 1.6 4.8 0.00 0.00 0.00 39 1014.1
20260506002502 22 285 1.6 3.2 0.00 0.00 0.00 38 1014.1
20260506002001 22 288 1.6 4.8 0.00 0.00 0.00 38 1014.0
20260506001506 22 255 1.6 11.3 0.00 0.00 0.00 37 1014.0
20260506001002 22 248 3.2 11.3 0.00 0.00 0.00 36 1013.9
20260506000501 23 283 1.6 4.8 0.00 0.00 0.00 33 1013.8
20260506000007 23 318 1.6 6.4 0.00 0.00 0.00 32 1013.8
20260505235505 23 343 1.6 6.4 0.00 0.00 0.00 32 1013.8
20260505235005 23 49 3.2 8.0 0.00 0.00 0.00 31 1013.8
20260505234514 23 345 1.6 8.0 0.00 0.00 0.00 32 1013.9
20260505234009 23 319 1.6 6.4 0.00 0.00 0.00 32 1013.8
20260505233506 23 77 1.6 9.7 0.00 0.00 0.00 31 1013.8
20260505233026 23 56 3.2 9.7 0.00 0.00 0.00 31 1013.9
20260505232510 24 18 1.6 9.7 0.00 0.00 0.00 30 1013.8
20260505232010 25 276 1.6 9.7 0.00 0.00 0.00 29 1013.8
20260505231531 25 57 1.6 11.3 0.00 0.00 0.00 30 1013.8
20260505231003 25 73 1.6 11.3 0.00 0.00 0.00 29 1013.8
20260505230503 25 346 3.2 11.3 0.00 0.00 0.00 28 1013.7
20260505230007 25 40 4.8 9.7 0.00 0.00 0.00 28 1013.7
20260505225505 25 6 4.8 12.9 0.00 0.00 0.00 28 1013.6
20260505225003 25 341 4.8 12.9 0.00 0.00 0.00 28 1013.7
20260505224510 25 272 4.8 11.3 0.00 0.00 0.00 27 1013.6
20260505224007 26 98 3.2 11.3 0.00 0.00 0.00 28 1013.7
20260505223505 25 328 3.2 14.5 0.00 0.00 0.00 28 1013.8
20260505223019 25 136 3.2 20.9 0.00 0.00 0.00 28 1013.7
20260505222508 25 104 6.4 20.9 0.00 0.00 0.00 27 1013.9
20260505222012 25 60 4.8 14.5 0.00 0.00 0.00 29 1013.8
20260505221519 25 53 4.8 11.3 0.00 0.00 0.00 28 1013.9
20260505221006 25 39 3.2 12.9 0.00 0.00 0.00 28 1013.9
20260505220507 25 44 4.8 12.9 0.00 0.00 0.00 27 1013.8
20260505220043 25 56 4.8 12.9 0.00 0.00 0.00 28 1013.8
20260505215505 25 327 3.2 9.7 0.00 0.00 0.00 28 1013.9
20260505215003 25 52 1.6 8.0 0.00 0.00 0.00 28 1013.8
20260505214512 25 318 1.6 14.5 0.00 0.00 0.00 28 1013.8
20260505214005 25 292 4.8 14.5 0.00 0.00 0.00 28 1013.8
20260505213503 25 16 3.2 14.5 0.00 0.00 0.00 28 1013.8
20260505213018 25 338 4.8 14.5 0.00 0.00 0.00 27 1013.8
20260505212506 25 322 1.6 12.9 0.00 0.00 0.00 28 1013.9
20260505212007 25 319 3.2 16.1 0.00 0.00 0.00 30 1013.9
20260505211516 25 79 6.4 16.1 0.00 0.00 0.00 28 1013.9
20260505211002 25 160 3.2 11.3 0.00 0.00 0.00 28 1013.8
20260505210502 25 49 4.8 16.1 0.00 0.00 0.00 31 1014.0
20260505210004 24 234 4.8 22.5 0.00 0.00 0.00 30 1014.0
20260505205507 25 68 8.0 22.5 0.00 0.00 0.00 29 1014.2
20260505205004 25 316 4.8 14.5 0.00 0.00 0.00 30 1014.2
20260505204504 25 13 8.0 14.5 0.00 0.00 0.00 29 1014.2
20260505204004 25 295 3.2 11.3 0.00 0.00 0.00 30 1014.1
20260505203503 25 330 4.8 11.3 0.00 0.00 0.00 28 1014.2
20260505203010 25 323 4.8 11.3 0.00 0.00 0.00 30 1014.2
20260505202505 24 53 6.4 19.3 0.00 0.00 0.00 29 1014.2
20260505202004 24 81 8.0 19.3 0.00 0.00 0.00 29 1014.2
20260505201517 24 109 4.8 12.9 0.00 0.00 0.00 29 1014.3
20260505201007 24 50 4.8 12.9 0.00 0.00 0.00 30 1014.4
20260505200510 24 17 4.8 12.9 0.00 0.00 0.00 31 1014.4
20260505200021 25 7 4.8 12.9 0.00 0.00 0.00 30 1014.5
20260505195503 25 321 3.2 11.3 0.00 0.00 0.00 29 1014.5
20260505195003 24 59 1.6 11.3 0.00 0.00 0.00 31 1014.5
20260505194508 23 309 4.8 12.9 0.00 0.00 0.00 31 1014.5
20260505194009 23 310 8.0 12.9 0.00 0.00 0.00 32 1014.5
20260505193504 23 330 4.8 12.9 0.00 0.00 0.00 33 1014.5
20260505193004 23 321 4.8 12.9 0.00 0.00 0.00 33 1014.6
20260505192506 23 18 6.4 12.9 0.00 0.00 0.00 32 1014.5
20260505192004 23 47 4.8 8.0 0.00 0.00 0.00 35 1014.5
20260505191508 23 345 1.6 9.7 0.00 0.00 0.00 34 1014.5
20260505191002 23 131 3.2 9.7 0.00 0.00 0.00 34 1014.5
20260505190506 23 360 1.6 9.7 0.00 0.00 0.00 33 1014.5
20260505190015 23 65 4.8 9.7 0.00 0.00 0.00 35 1014.5
20260505185508 22 87 3.2 11.3 0.00 0.00 0.00 36 1014.5
20260505185012 22 27 4.8 11.3 0.00 0.00 0.00 37 1014.6
20260505184521 22 321 4.8 9.7 0.00 0.00 0.00 37 1014.5
20260505184002 22 299 3.2 12.9 0.00 0.00 0.00 36 1014.6
20260505183503 22 310 6.4 12.9 0.00 0.00 0.00 38 1014.8
20260505183004 21 96 3.2 8.0 0.00 0.00 0.00 36 1014.6
20260505182502 22 62 3.2 6.4 0.00 0.00 0.00 37 1014.7
20260505182002 22 75 3.2 8.0 0.00 0.00 0.00 37 1014.7
20260505181503 21 295 3.2 9.7 0.00 0.00 0.00 38 1014.6
20260505181005 21 53 3.2 12.9 0.00 0.00 0.00 39 1014.6
20260505180505 21 94 4.8 12.9 0.00 0.00 0.00 37 1014.6
20260505180010 21 90 4.8 9.7 0.00 0.00 0.00 37 1014.6
20260505175503 21 51 3.2 9.7 0.00 0.00 0.00 38 1014.6
20260505175007 21 267 3.2 6.4 0.00 0.00 0.00 38 1014.6
20260505174518 20 147 1.6 8.0 0.00 0.00 0.00 39 1014.5
20260505174006 20 321 4.8 8.0 0.00 0.00 0.00 39 1014.5
20260505173505 20 345 4.8 8.0 0.00 0.00 0.00 39 1014.5
20260505173020 20 340 0.0 6.4 0.00 0.00 0.00 40 1014.5
20260505172504 20 340 3.2 6.4 0.00 0.00 0.00 40 1014.5
20260505172001 20 143 0.0 6.4 0.00 0.00 0.00 40 1014.5
20260505171504 20 276 1.6 6.4 0.00 0.00 0.00 40 1014.5
20260505171004 19 257 1.6 8.0 0.00 0.00 0.00 43 1014.5
20260505170501 18 302 1.6 8.0 0.00 0.00 0.00 43 1014.6
20260505170007 18 68 1.6 6.4 0.00 0.00 0.00 43 1014.6
20260505165503 18 257 1.6 4.8 0.00 0.00 0.00 44 1014.7
20260505165003 18 292 1.6 4.8 0.00 0.00 0.00 44 1014.6
20260505164515 18 117 1.6 4.8 0.00 0.00 0.00 45 1014.6
20260505164011 18 131 1.6 4.8 0.00 0.00 0.00 47 1014.8
20260505163508 17 318 1.6 4.8 0.00 0.00 0.00 47 1014.8
20260505163017 18 315 0.0 4.8 0.00 0.00 0.00 46 1014.9
20260505162507 17 120 1.6 4.8 0.00 0.00 0.00 49 1014.9
20260505162011 17 146 0.0 4.8 0.00 0.00 0.00 50 1014.8
20260505161523 16 208 1.6 4.8 0.00 0.00 0.00 49 1014.8
20260505161004 16 221 0.0 4.8 0.00 0.00 0.00 50 1014.8
20260505160504 16 98 1.6 4.8 0.00 0.00 0.00 50 1014.8
20260505153013 13 248 0.0 3.2 0.00 0.00 0.00 56 1014.9
20260505152506 13 321 0.0 4.8 0.00 0.00 0.00 58 1014.7
20260505152006 13 321 1.6 4.8 0.00 0.00 0.00 61 1014.8
20260505151519 12 305 1.6 4.8 0.00 0.00 0.00 61 1014.8
20260505151007 12 311 1.6 3.2 0.00 0.00 0.00 61 1014.8
20260505150506 12 332 0.0 4.8 0.00 0.00 0.00 61 1014.7
20260505140508 6 236 0.0 1.6 0.00 0.00 0.00 68 1014.1
20260505125007 3 233 1.6 1.6 0.00 0.00 0.00 70 1013.4
20260505124534 2 236 1.6 1.6 0.00 0.00 0.00 71 1013.4
20260505124008 2 236 1.6 1.6 0.00 0.00 0.00 70 1013.4
20260505123507 2 236 0.0 1.6 0.00 0.00 0.00 70 1013.4
20260505123028 2 236 0.0 1.6 0.00 0.00 0.00 70 1013.4
20260505122508 2 236 0.0 1.6 0.00 0.00 0.00 70 1013.4
20260505122015 2 236 0.0 1.6 0.00 0.00 0.00 70 1013.3
20260505121510 2 236 0.0 1.6 0.00 0.00 0.00 70 1013.3